Погода в Эль-Хосейме

Марокко     35°14′40″N   3°55′38″W
темп.,
°C
ветер,
м/с
пор.,
м/с
влажн.,
%
обл.,
%
осадки,
мм/ч
давл.,
гПа
погр.,
м
14 апреля, ср
ср1400:00+16всв3389100 0.5 1019249
03:00+16всв5490100 0.6 1016231
06:00+16в4486100 0.6 1016303
09:00+16в4582100 0.0 1016324
12:00+16всв8885100 0.2 1015445
15:00+16всв9883100 0.0 1015533
18:00+15в111185100 0.2 1014667
21:00+15в7884100 0.8 1015492
15 апреля, чт
чт1500:00+15всв8787100 1.7 1013342
03:00+15в5588100 0.9 1012341
06:00+15в4490100 2.3 1012391
09:00+14всв101194100 6.8 1013709
12:00+14всв101291100 8.9 1014780
15:00+14всв91091100 1.6 1013709
18:00+14в10108585 1.9 1014713
21:00+14в898494 0.0 1016578
16 апреля, пт
пт1600:00+14в6684100 0.0 1015418
03:00+14в8785100 0.0 1014433
06:00+14в5585100 0.4 1015318
09:00+15в3477100 0.5 1017361
12:00+17всв436513 0.5 1016562
15:00+17св756913 0.1 1015438
18:00+16св32714 0.1 1016252
21:00+15ю017463 0.0 1017145
17 апреля, сб
сб1700:00+15св117638 0.0 1017173
03:00+15з117545 0.0 1016123
06:00+15сз11774 0.0 1016130
09:00+16ссз117116 0.0 1017242
12:00+16ссз34710 0.0 1017346
15:00+16зсз23710 0.0 1016349
18:00+17зюз12680 0.0 1018199
21:00+16в44812 0.0 1021179
18 апреля, вс
вс1800:00+16в33790 0.0 1021133
03:00+15в33765 0.0 1020133
06:00+15ююв12695 0.0 1021101
09:00+16зсз22668 0.0 1022396
12:00+17ссз3267100 0.0 1021442
15:00+16ссв2166100 0.0 1020300
18:00+16юв1164100 0.0 1021170
21:00+16св1163100 0.0 102236